Weather reports worldwide

Advertisment
Greensboro/G.-High Pt., United States of America (72317): temperature & dewpoint: 05.12.2019 03:00:00 - 11.12.2019 03:00:00 (EST)Greensboro/G.-High Pt., United States of America (72317): wind speed: 05.12.2019 03:00:00 - 11.12.2019 03:00:00 (EST)Greensboro/G.-High Pt., United States of America (72317): wind direction: 05.12.2019 03:00:00 - 11.12.2019 03:00:00 (EST)Greensboro/G.-High Pt., United States of America (72317): reduced air pressure: 05.12.2019 03:00:00 - 11.12.2019 03:00:00 (EST)Greensboro/G.-High Pt., United States of America (72317): visibility: 05.12.2019 03:00:00 - 11.12.2019 03:00:00 (EST)Greensboro/G.-High Pt., United States of America (72317): precipitation: 05.12.2019 03:00:00 - 11.12.2019 03:00:00 (EST)
Date & Time tt [°C] td [°C] ff [km/h] ff [kn] dd ppp [hPa] vv [km] rr [mm]
11.12.2019 03:00:00 - - - - - - - -
11.12.2019 02:00:00 5,0 3,9 11 6 NNE 1022,1 11 0,8
11.12.2019 01:00:00 5,6 4,4 8 4 N 1021,4 15 0,5
11.12.2019 00:00:00 6,7 5,0 9 5 N 1021,2 6 0,5
10.12.2019 23:00:00 7,8 7,2 5 3 N 1020,3 8 0,5
10.12.2019 22:00:00 8,3 7,2 8 4 NNE 1020,0 13 1,0
10.12.2019 21:00:00 8,3 7,2 9 5 NNW 1019,8 8 0,8
10.12.2019 20:00:00 9,4 7,2 9 5 N 1019,1 10 0,0
10.12.2019 19:00:00 10,6 8,3 13 7 NNW 1018,3 16 -
10.12.2019 18:00:00 10,6 8,9 9 5 NNW 1017,1 16 3,0
10.12.2019 17:00:00 11,7 11,1 13 7 N 1016,0 2,0 1,5
10.12.2019 16:00:00 13,3 12,2 18 10 NW 1014,4 16 0,3
10.12.2019 15:00:00 13,9 13,3 9 5 NNW 1013,8 6 0,3
10.12.2019 14:00:00 13,9 13,3 11 6 WNW 1013,4 2,4 0,8
10.12.2019 13:00:00 13,9 13,9 16 9 W 1013,6 2,8 0,8
10.12.2019 12:00:00 16,1 15,6 21 11 W 1013,6 2,0 0,3
10.12.2019 11:00:00 16,1 15,0 24 13 SW 1013,7 4,0 0,3
10.12.2019 10:00:00 14,4 13,9 22 12 SSW 1013,8 4,8 0,0
10.12.2019 09:00:00 14,4 13,3 26 14 SSW 1013,7 8 0,0
10.12.2019 08:00:00 13,9 13,3 15 8 SW 1013,8 6 0,0
10.12.2019 07:00:00 13,3 12,8 21 11 SW 1013,9 10 0,0
10.12.2019 06:00:00 13,3 12,8 24 13 SSW 1013,4 8 -
10.12.2019 05:00:00 13,3 13,3 22 12 SW 1013,4 6 -
10.12.2019 04:00:00 12,8 12,8 16 9 SW 1013,6 0,4 0,0
10.12.2019 03:00:00 11,7 11,7 15 8 SW 1013,8 0,4 -
10.12.2019 02:00:00 10,6 10,6 13 7 SW 1014,3 0,4 -
10.12.2019 01:00:00 10,0 10,0 11 6 SW 1014,5 0,4 0,0
10.12.2019 00:00:00 10,0 10,0 15 8 SW 1014,7 0,8 -
09.12.2019 23:00:00 9,4 9,4 13 7 SW 1014,8 1,2 -
09.12.2019 22:00:00 8,9 8,3 16 9 SW 1015,1 1,2 0,0
09.12.2019 21:00:00 8,3 8,3 16 9 WSW 1015,5 1,2 -
09.12.2019 20:00:00 7,2 7,2 18 10 SSW 1015,1 4,8 -
09.12.2019 19:00:00 6,7 6,1 16 9 SW 1014,8 3,2 0,0
09.12.2019 18:00:00 6,1 5,6 11 6 WSW 1015,0 3,2 0,3
09.12.2019 17:00:00 5,6 5,6 11 6 WSW 1015,0 1,6 0,0
09.12.2019 16:00:00 5,6 5,0 13 7 WSW 1014,9 1,2 0,0
09.12.2019 15:00:00 5,6 5,6 8 4 W 1014,8 1,2 0,0
09.12.2019 14:00:00 6,1 5,6 9 5 WSW 1015,1 4,8 0,3
09.12.2019 13:00:00 6,1 4,4 11 6 W 1016,6 11 0,0
09.12.2019 12:00:00 6,1 3,9 8 4 WSW 1017,8 16 0,0
09.12.2019 11:00:00 5,6 3,3 5 3 SSE 1018,4 16 0,0
09.12.2019 10:00:00 4,4 2,2 0 0 N 1019,9 10 0,0
09.12.2019 09:00:00 3,9 0,6 0 0 N 1020,0 16 0,3
09.12.2019 08:00:00 3,9 0,6 0 0 N 1020,4 8 0,3
09.12.2019 07:00:00 4,4 -1,7 0 0 N 1020,5 16 0,0
09.12.2019 06:00:00 3,9 -2,2 0 0 N 1020,8 16 -
09.12.2019 05:00:00 3,9 -3,3 0 0 N 1021,2 16 -
09.12.2019 04:00:00 3,9 -2,8 8 4 NW 1022,2 16 0,0
09.12.2019 03:00:00 2,8 -2,2 0 0 N 1023,1 16 -
09.12.2019 02:00:00 2,8 -3,3 5 3 NNW 1023,5 16 -
09.12.2019 01:00:00 2,8 -3,9 8 4 ENE 1023,7 16 0,0
09.12.2019 00:00:00 3,3 -4,4 5 3 N 1024,8 16 -
08.12.2019 23:00:00 2,8 -3,9 9 5 NE 1024,9 16 -
08.12.2019 22:00:00 3,9 -4,4 8 4 N 1026,5 16 0,0
08.12.2019 21:00:00 3,3 -3,9 8 4 NNE 1026,1 16 -
08.12.2019 20:00:00 4,4 -3,9 9 5 N 1026,8 16 -
08.12.2019 19:00:00 5,0 -4,4 8 4 E 1026,2 16 0,0
08.12.2019 18:00:00 6,1 -5,0 8 4 ENE 1026,7 16 -
08.12.2019 17:00:00 7,2 -5,6 5 3 E 1026,9 16 -
08.12.2019 16:00:00 8,3 -5,6 11 6 ESE 1026,7 16 0,0
08.12.2019 15:00:00 8,3 -5,6 11 6 ESE 1027,6 16 -
08.12.2019 14:00:00 7,8 -5,6 0 0 N 1028,8 16 -
08.12.2019 13:00:00 7,8 -4,4 8 4 N 1029,2 16 0,0
08.12.2019 12:00:00 6,7 -5,0 9 5 E 1030,5 16 -
08.12.2019 11:00:00 5,6 -2,8 9 5 ENE 1031,2 16 -
08.12.2019 10:00:00 2,8 -2,8 8 4 E 1032,1 16 0,0
08.12.2019 09:00:00 0,6 -3,9 8 4 NE 1032,1 16 -
08.12.2019 08:00:00 -1,1 -5,0 9 5 N 1032,1 16 -
08.12.2019 07:00:00 -1,1 -4,4 9 5 N 1031,8 16 0,0
08.12.2019 06:00:00 -0,6 -4,4 5 3 NE 1031,0 16 -
08.12.2019 05:00:00 -0,6 -4,4 9 5 ENE 1030,6 16 -
08.12.2019 04:00:00 -0,6 -3,9 13 7 ENE 1030,5 16 0,0
08.12.2019 03:00:00 -0,6 -3,9 13 7 ENE 1030,7 16 -
08.12.2019 02:00:00 1,1 -3,9 8 4 ENE 1030,6 16 -
08.12.2019 01:00:00 1,1 -3,3 5 3 NE 1030,6 16 0,0
08.12.2019 00:00:00 2,2 -3,3 8 4 NE 1030,1 16 -
07.12.2019 23:00:00 2,8 -3,3 8 4 ENE 1030,0 16 -
07.12.2019 22:00:00 2,8 -2,8 9 5 ENE 1029,9 16 0,0
07.12.2019 21:00:00 3,9 -1,7 9 5 ENE 1029,5 16 -
07.12.2019 20:00:00 3,9 -1,1 11 6 ENE 1029,0 16 -
07.12.2019 19:00:00 4,4 -0,6 13 7 ENE 1028,5 16 0,0
07.12.2019 18:00:00 5,6 0,6 11 6 E 1027,7 16 -
07.12.2019 17:00:00 7,2 1,1 13 7 ENE 1027,4 16 -
07.12.2019 16:00:00 10,0 1,7 15 8 ENE 1027,0 16 0,0
07.12.2019 15:00:00 10,6 1,7 15 8 ENE 1026,6 16 -
07.12.2019 14:00:00 10,6 1,7 16 9 ENE 1026,5 16 -
07.12.2019 13:00:00 10,0 1,7 13 7 ENE 1026,7 16 0,0
07.12.2019 12:00:00 9,4 1,7 21 11 ENE 1027,3 16 -
07.12.2019 11:00:00 8,3 1,7 16 9 ENE 1027,6 16 -
07.12.2019 10:00:00 7,2 1,7 21 11 ENE 1027,3 16 0,0
07.12.2019 09:00:00 6,1 2,2 24 13 NE 1026,4 16 -
07.12.2019 08:00:00 5,6 1,1 9 5 NNE 1025,3 16 -
07.12.2019 07:00:00 3,3 0,6 5 3 N 1024,6 16 0,0
07.12.2019 06:00:00 3,3 0,0 0 0 N 1023,7 16 -
07.12.2019 05:00:00 5,0 1,1 5 3 NNE 1023,2 16 -
07.12.2019 04:00:00 6,1 1,7 8 4 NNE 1022,6 16 0,0
07.12.2019 03:00:00 5,0 1,1 5 3 WNW 1022,5 16 -
07.12.2019 02:00:00 5,6 1,7 0 0 N 1021,9 16 -
07.12.2019 01:00:00 5,0 1,7 9 5 WSW 1021,6 16 0,0
07.12.2019 00:00:00 7,8 2,8 9 5 NW 1021,7 16 -
06.12.2019 23:00:00 8,3 3,3 5 3 W 1021,8 16 -
06.12.2019 22:00:00 8,3 3,3 13 7 WSW 1021,5 16 0,0
06.12.2019 21:00:00 8,3 3,3 11 6 WSW 1021,7 16 -
06.12.2019 20:00:00 8,9 2,8 8 4 WSW 1021,8 16 -
06.12.2019 19:00:00 9,4 2,8 5 3 WSW 1021,8 16 0,0
06.12.2019 18:00:00 9,4 2,8 5 3 W 1021,7 16 -
06.12.2019 17:00:00 10,6 2,8 13 7 SW 1020,9 16 -
06.12.2019 16:00:00 11,7 2,2 22 12 SSW 1020,8 16 0,0
06.12.2019 15:00:00 12,2 0,6 21 11 SW 1021,0 16 -
06.12.2019 14:00:00 12,2 0,6 15 8 SW 1020,6 16 -
06.12.2019 13:00:00 11,1 -0,6 16 9 SW 1021,5 16 0,0
06.12.2019 12:00:00 10,6 -0,6 15 8 SW 1022,4 16 -
06.12.2019 11:00:00 9,4 -1,1 13 7 WSW 1023,2 16 -
06.12.2019 10:00:00 8,3 -1,1 15 8 SW 1023,0 16 0,0
06.12.2019 09:00:00 6,7 -1,1 9 5 S 1022,9 16 -
06.12.2019 08:00:00 5,0 -1,7 15 8 SW 1022,5 16 -
06.12.2019 07:00:00 2,8 -2,2 8 4 SW 1022,8 16 0,0
06.12.2019 06:00:00 0,6 -2,8 8 4 SW 1022,2 16 -
06.12.2019 05:00:00 -0,6 -3,3 8 4 SSW 1021,9 16 -
06.12.2019 04:00:00 0,0 -3,3 9 5 S 1022,0 16 0,0
06.12.2019 03:00:00 0,6 -3,3 8 4 SW 1022,3 16 -
06.12.2019 02:00:00 2,2 -3,3 5 3 SSW 1022,2 16 -
06.12.2019 01:00:00 2,2 -3,3 5 3 SW 1022,1 16 0,0
06.12.2019 00:00:00 1,1 -3,3 9 5 SSW 1022,6 16 -
05.12.2019 23:00:00 2,8 -2,8 5 3 S 1022,4 16 -
05.12.2019 22:00:00 6,1 -3,9 8 4 WNW 1021,6 16 0,0
05.12.2019 21:00:00 4,4 -3,3 8 4 SW 1021,3 16 -
05.12.2019 20:00:00 7,8 -5,0 8 4 WNW 1021,1 16 -
05.12.2019 19:00:00 6,7 -5,0 8 4 WSW 1020,4 16 0,0
05.12.2019 18:00:00 9,4 -5,6 11 6 W 1019,9 16 -
05.12.2019 17:00:00 10,6 -6,1 13 7 WNW 1019,0 16 -
05.12.2019 16:00:00 13,3 -6,7 15 8 W 1018,1 16 0,0
05.12.2019 15:00:00 12,8 -6,1 18 10 WNW 1017,5 16 -
05.12.2019 14:00:00 12,8 -6,1 21 11 W 1017,4 16 -
05.12.2019 13:00:00 12,2 -5,6 18 10 NW 1017,3 16 0,0
05.12.2019 12:00:00 11,1 -5,0 22 12 NW 1018,1 16 -
05.12.2019 11:00:00 10,0 -4,4 16 9 WNW 1018,3 16 -
05.12.2019 10:00:00 8,9 -4,4 18 10 NW 1018,0 16 0,0
05.12.2019 09:00:00 7,2 -4,4 28 15 NW 1017,1 16 -
05.12.2019 08:00:00 5,6 -4,4 18 10 WNW 1016,5 16 -
05.12.2019 07:00:00 4,4 -5,0 13 7 NW 1015,2 16 0,0
05.12.2019 06:00:00 5,6 -5,6 22 12 NW 1013,4 16 -
05.12.2019 05:00:00 6,1 -5,6 21 11 NW 1011,8 16 -
05.12.2019 04:00:00 7,2 -6,1 13 7 NNW 1010,5 16 0,0
05.12.2019 03:00:00 5,6 -6,1 15 8 NW 1009,5 16 -

tt = temperature
td = dewpoint
ff = wind speed
dd = wind direction
ppp = reduced air pressure
vv = visibility
rr = precipitation

Next stations